Kinston, NC

1:39 AM EST on January 20, 2017 (GMT -0500)
Kinston Regional Jetport / Stallings Field

Weather History for KISO - October, 2013

Change the Weather History Date:

Saturday, October 12, 2013

  Actual Average Record
Temperature  
Mean Temperature 66 °F -  
Max Temperature 69 °F 74 °F 86 °F (2000)
Min Temperature 62 °F 52 °F 38 °F (1988)
Growing Degree Days 16 (Base 50)    
Moisture  
Dew Point 63 °F    
Average Humidity 93    
Maximum Humidity 100    
Minimum Humidity 83    
Precipitation  
Precipitation 0.00 in - - ()
Sea Level Pressure  
Sea Level Pressure 29.99 in    
Wind  
Wind Speed 1 mph (NW)    
Max Wind Speed 7 mph    
Max Gust Speed -    
Visibility 9 miles    
Events      
Averages and records for this station are not official NWS values.
T = Trace of Precipitation, MM = Missing Value Source: NWS Daily Summary

Daily Weather History Graph

Daily Weather History Graph

Search for Another Location

Airport or City:

Trip Planner

Search our weather history database for the weather conditions in past years. The results will help you decide how hot, cold, wet, or windy it might be!

Date:

Astronomy

Oct. 12, 2013 Rise Set
Actual Time 7:14 AM EDT 6:38 PM EDT
Civil Twilight 6:48 AM EDT 7:04 PM EDT
Nautical Twilight 6:19 AM EDT 7:33 PM EDT
Astronomical Twilight 5:49 AM EDT 8:03 PM EDT
Moon 2:34 PM EDT (10/12) 12:29 AM EDT (10/12)
Length of Visible Light 12h 15m
Length of Day
11h 24m
First Quarter, 58% of the Moon is Illuminated
Oct 12
First Quarter
Oct 18
Full
Oct 26
Last Quarter
Nov 3
New
Nov 10
First Quarter

Hourly Weather History & Observations

Time (EDT) Temp. Dew Point Humidity Pressure Visibility Wind Dir Wind Speed Gust Speed Precip Events Conditions
12:15 AM 63.5 °F 61.7 °F 94% 29.96 in 10.0 mi Calm Calm - N/A   Overcast
12:35 AM 63.5 °F 61.3 °F 93% 29.95 in 10.0 mi Calm Calm - N/A   Overcast
12:55 AM 63.5 °F 61.2 °F 92% 29.95 in 10.0 mi Calm Calm - N/A   Overcast
1:15 AM 63.5 °F 61.0 °F 91% 29.95 in 10.0 mi Calm Calm - N/A   Overcast
1:35 AM 63.5 °F 60.8 °F 91% 29.95 in 10.0 mi Calm Calm - N/A   Overcast
1:55 AM 63.1 °F 61.0 °F 93% 29.95 in 10.0 mi Calm Calm - N/A   Overcast
2:15 AM 63.0 °F 61.0 °F 93% 29.96 in 10.0 mi Calm Calm - N/A   Overcast
2:35 AM 62.8 °F 61.0 °F 94% 29.95 in 10.0 mi Calm Calm - N/A   Overcast
2:55 AM 62.8 °F 61.0 °F 94% 29.95 in 10.0 mi Calm Calm - N/A   Overcast
3:15 AM 62.8 °F 61.2 °F 94% 29.94 in 10.0 mi Calm Calm - N/A   Overcast
3:35 AM 62.8 °F 61.2 °F 94% 29.95 in 10.0 mi Calm Calm - N/A   Overcast
3:55 AM 62.6 °F 61.0 °F 94% 29.95 in 10.0 mi Calm Calm - N/A   Overcast
4:15 AM 62.6 °F 60.8 °F 94% 29.96 in 5.0 mi Calm Calm - N/A   Overcast
4:35 AM 62.4 °F 61.0 °F 95% 29.96 in 7.0 mi NW 3.5 mph - N/A   Overcast
4:55 AM 62.6 °F 61.0 °F 94% 29.96 in 10.0 mi Calm Calm - N/A   Overcast
5:15 AM 62.6 °F 60.8 °F 94% 29.96 in 10.0 mi NW 4.6 mph - N/A   Overcast
5:35 AM 62.2 °F 60.8 °F 95% 29.96 in 10.0 mi NW 4.6 mph - N/A   Overcast
5:55 AM 62.2 °F 60.8 °F 95% 29.97 in 10.0 mi Calm Calm - N/A   Overcast
6:15 AM 62.2 °F 60.8 °F 95% 29.98 in 10.0 mi Calm Calm - N/A   Overcast
6:35 AM 62.2 °F 60.8 °F 95% 29.98 in 10.0 mi Calm Calm - N/A   Overcast
6:55 AM 62.1 °F 60.8 °F 96% 29.98 in 10.0 mi Calm Calm - N/A   Overcast
6:56 AM 62.6 °F 60.8 °F 94% 29.98 in 5.0 mi Calm Calm - N/A   Overcast
7:56 AM 62.6 °F 60.8 °F 94% 29.99 in 5.0 mi WNW 3.5 mph - N/A   Overcast
8:56 AM 64.4 °F 62.6 °F 94% 30.01 in 5.0 mi NW 3.5 mph - N/A   Overcast
9:56 AM 64.4 °F 60.8 °F 88% 30.01 in 7.0 mi Calm Calm - N/A   Overcast
10:56 AM 66.2 °F 62.6 °F 88% 30.01 in 7.0 mi NW 4.6 mph - N/A   Overcast
11:56 AM 66.2 °F 62.6 °F 88% 30.02 in 7.0 mi WNW 6.9 mph - N/A   Overcast
12:56 PM 68.0 °F 62.6 °F 83% 30.01 in 7.0 mi NW 5.8 mph - N/A   Overcast
1:56 PM 68.0 °F 62.6 °F 83% 30.00 in 7.0 mi Calm Calm - N/A   Overcast
2:56 PM 69.8 °F 64.4 °F 83% 29.99 in 10.0 mi NW 4.6 mph - N/A   Overcast
3:56 PM 69.8 °F 64.4 °F 83% 30.00 in 10.0 mi Calm Calm - N/A   Overcast
4:56 PM 69.8 °F 64.4 °F 83% 30.00 in 10.0 mi Calm Calm - N/A   Overcast
5:56 PM 68.0 °F 66.2 °F 94% 30.02 in 5.0 mi Calm Calm - N/A   Mostly Cloudy
6:56 PM 68.0 °F 66.2 °F 94% 30.03 in 7.0 mi Calm Calm - N/A   Overcast
7:56 PM 68.0 °F 66.2 °F 94% 30.04 in 3.0 mi Calm Calm - N/A   Overcast
8:56 PM 66.2 °F 66.2 °F 100% 30.05 in 10.0 mi Calm Calm - N/A   Overcast
9:15 PM 67.3 °F 66.6 °F 98% 30.05 in 10.0 mi Calm Calm - N/A   Overcast
9:35 PM 67.1 °F 66.4 °F 98% 30.05 in 10.0 mi NNW 4.6 mph - N/A   Overcast
9:55 PM 67.3 °F 66.4 °F 97% 30.05 in 10.0 mi NNW 3.5 mph - N/A   Overcast
10:15 PM 67.3 °F 66.2 °F 96% 30.05 in 10.0 mi NNW 4.6 mph - N/A   Overcast
10:35 PM 67.1 °F 66.2 °F 97% 30.05 in 7.0 mi NNW 3.5 mph - N/A   Overcast
10:55 PM 67.1 °F 66.2 °F 97% 30.05 in 10.0 mi NNW 3.5 mph - N/A   Overcast
11:15 PM 67.1 °F 66.2 °F 97% 30.06 in 7.0 mi NNW 4.6 mph - N/A   Overcast
11:35 PM 67.1 °F 66.2 °F 97% 30.05 in 7.0 mi NNW 5.8 mph - N/A   Overcast
11:55 PM 66.7 °F 66.2 °F 98% 30.05 in 10.0 mi NNW 3.5 mph - N/A   Overcast